Location: 10033 Water Well
(34.0865°N, 106.8959°W)
Time: 17:25:34
(UTC+00:00)

Spot 4 Rocket - Pass Details

Date: 13 January 2026
Orbit: 768 x 774 km, 98.8° (Epoch: 11 February)

Event Time Altitude Azimuth Distance (km) Brightness Sun altitude
Rises 02:02:18 0° 174° (S) 3,234 7.3 -21.1°
Reaches altitude 10° 02:04:37 10° 177° (S) 2,311 6.6 -21.5°
Maximum altitude 02:09:40 63° 258° (WSW) 859 4.4 -22.6°
Drops below altitude 10° 02:14:45 10° 340° (NNW) 2,325 6.6 -23.6°
Sets 02:17:06 0° 343° (NNW) 3,255 7.3 -24.1°
